Prescott, AZ

2:00 PM MST on November 16, 2019 (GMT -0700)
Love

Weather History for KPRC - May, 2019

Change the Weather History Date:

Saturday, May 18, 2019

  Actual Average Record
Temperature  
Mean Temperature 54 °F 62 °F  
Max Temperature 69 °F 77 °F 89 °F (2008)
Min Temperature 38 °F 47 °F 28 °F (1971)
Degree Days  
Heating Degree Days 12    
Month to date heating degree days 128  
Since 1 July heating degree days 4177  
Cooling Degree Days 0    
Month to date cooling degree days 0  
Year to date cooling degree days 1  
Growing Degree Days 4 (Base 50)    
Moisture  
Dew Point 23 °F    
Average Humidity 31    
Maximum Humidity 60    
Minimum Humidity 14    
Precipitation  
Precipitation 0.00 in 0.02 in 0.28 in (1993)
Month to date precipitation 0.81 0.27  
Year to date precipitation 6.33 4.35  
Sea Level Pressure  
Sea Level Pressure 29.83 in    
Wind  
Wind Speed 6 mph ()    
Max Wind Speed 20 mph    
Max Gust Speed 25 mph    
Visibility 10.0 miles    
Events      
T = Trace of Precipitation, MM = Missing Value Source: Averaged Metar Reports

Daily Weather History Graph

Daily Weather History Graph

Search for Another Location

Airport or City:

Astronomy

May. 18, 2019 Rise Set
Actual Time 5:24 AM MST 7:27 PM MST
Civil Twilight 4:56 AM MST 7:56 PM MST
Nautical Twilight 4:22 AM MST 8:30 PM MST
Astronomical Twilight 3:45 AM MST 9:07 PM MST
Moon 7:29 PM MST (5/18) 5:30 AM MST (5/18)
Length of Visible Light 14h 59m
Length of Day
14h 02m
Full, 100% of the Moon is Illuminated
May 18
Full
May 18
Full
May 26
Last Quarter
Jun 3
New
Jun 9
First Quarter

Hourly Weather History & Observations

Time (MST) Temp. Windchill Dew Point Humidity Pressure Visibility Wind Dir Wind Speed Gust Speed Precip Events Conditions
12:53 AM 46.0 °F - 25.0 °F 44% 29.84 in 10.0 mi Calm Calm - N/A   Clear
1:53 AM 41.0 °F 39.0 °F 27.0 °F 57% 29.85 in 10.0 mi South 3.5 mph - N/A   Clear
2:53 AM 41.0 °F 35.2 °F 26.1 °F 55% 29.85 in 10.0 mi South 9.2 mph - N/A   Clear
3:53 AM 39.9 °F 34.5 °F 27.0 °F 60% 29.85 in 10.0 mi South 8.1 mph - N/A   Clear
4:53 AM 39.0 °F 34.8 °F 26.1 °F 60% 29.85 in 10.0 mi SSW 5.8 mph - N/A   Clear
5:53 AM 41.0 °F 34.7 °F 26.1 °F 55% 29.85 in 10.0 mi SSW 10.4 mph - N/A   Clear
6:53 AM 46.9 °F - 26.1 °F 44% 29.86 in 10.0 mi Calm Calm - N/A   Clear
7:53 AM 55.0 °F - 25.0 °F 31% 29.86 in 10.0 mi NNW 4.6 mph - N/A   Clear
8:53 AM 57.0 °F - 24.1 °F 28% 29.86 in 10.0 mi NNW 9.2 mph - N/A   Clear
9:53 AM 57.0 °F - 24.1 °F 28% 29.87 in 10.0 mi Calm Calm - N/A   Clear
10:53 AM 61.0 °F - 23.0 °F 23% 29.86 in 10.0 mi NW 9.2 mph 17.3 mph N/A   Clear
11:53 AM 64.0 °F - 24.1 °F 22% 29.84 in 10.0 mi NW 6.9 mph 17.3 mph N/A   Partly Cloudy
12:53 PM 66.0 °F - 24.1 °F 20% 29.84 in 10.0 mi West 12.7 mph 20.7 mph N/A   Scattered Clouds
1:53 PM 64.9 °F - 21.9 °F 19% 29.85 in 10.0 mi Variable 4.6 mph - N/A   Clear
2:53 PM 66.0 °F - 21.0 °F 18% 29.83 in 10.0 mi Variable 5.8 mph - N/A   Clear
3:53 PM 68.0 °F - 19.0 °F 15% 29.81 in 10.0 mi SSW 12.7 mph - N/A   Clear
4:53 PM 68.0 °F - 19.0 °F 15% 29.81 in 10.0 mi West 13.8 mph 21.9 mph N/A   Clear
5:53 PM 66.0 °F - 16.0 °F 15% 29.81 in 10.0 mi SW 12.7 mph - N/A   Clear
6:53 PM 63.0 °F - 19.0 °F 18% 29.80 in 10.0 mi West 11.5 mph - N/A   Clear
7:53 PM 59.0 °F - 23.0 °F 25% 29.79 in 10.0 mi SW 4.6 mph - N/A   Clear
8:53 PM 57.0 °F - 25.0 °F 29% 29.80 in 10.0 mi South 4.6 mph - N/A   Clear
9:53 PM 57.9 °F - 21.9 °F 25% 29.79 in 10.0 mi South 8.1 mph - N/A   Mostly Cloudy
10:53 PM 59.0 °F - 21.0 °F 23% 29.77 in 10.0 mi South 11.5 mph - N/A   Partly Cloudy
11:53 PM 57.9 °F - 21.0 °F 24% 29.75 in 10.0 mi South 11.5 mph - N/A   Clear